This demonstration page uses our WeatherBlox Daily Observations layout. Learn more.

Hourly Observations for April 26, 2016

Temp ( °F °C ) Dew Point ( °F °C ) Humidity (%) Winds ( mph kmh ) Pressure ( in mb ) Visibility ( mi km ) Precip ( " mm )
12:15 am 00:15 Clear 54 12.1 45 7 71 71 ENE 8 13 29.71 1006 10 16.0934 0 0
12:35 am 00:35 Partly Cloudy 55 12.5 45 7.1 70 70 ENE 9 15 29.71 1006 10 16.0934 0 0
12:55 am 00:55 Partly Cloudy 55 12.9 45 7.1 68 68 ENE 13 20 29.71 1006 10 16.0934 0 0
1:15 am 01:15 Clear 55 12.6 45 7.1 69 69 ENE 14 22 29.71 1006 10 16.0934 0 0
1:35 am 01:35 Partly Cloudy 55 12.5 45 7 69 69 NE 17 28 29.71 1006 10 16.0934 0 0
1:55 am 01:55 Partly Cloudy 53 11.6 44 6.9 73 73 ENE 17 28 29.71 1006 10 16.0934 0 0
2:15 am 02:15 Partly Cloudy 52 11.3 45 7.3 77 77 ENE 20 31 29.71 1006 10 16.0934 0 0
2:35 am 02:35 Partly Cloudy 51 10.8 45 7.3 79 79 ENE 17 28 29.68 1005 10 16.0934 0 0
2:55 am 02:55 Mostly Cloudy 51 10.5 45 7.3 81 81 ENE 18 30 29.68 1005 10 16.0934 0 0
3:15 am 03:15 Cloudy 51 10.5 45 7 79 79 NE 21 33 29.68 1005 10 16.0934 0 0
3:35 am 03:35 Cloudy 51 10.5 44 6.4 76 76 NE 22 35 29.68 1005 10 16.0934 0 0
3:55 am 03:55 Mostly Cloudy 50 9.8 43 6.1 78 78 NE 22 35 29.65 1004 10 16.0934 0 0
4:15 am 04:15 Mostly Cloudy 50 9.8 43 6.1 78 78 ENE 20 31 29.68 1005 10 16.0934 0 0
4:35 am 04:35 Cloudy 49 9.6 42 5.8 77 77 ENE 24 39 29.65 1004 10 16.0934 0 0
4:55 am 04:55 Mostly Cloudy 49 9.2 42 5.8 80 80 ENE 25 41 29.62 1003 10 16.0934 0 0
5:15 am 05:15 Cloudy 48 9.1 42 5.7 79 79 ENE 24 39 29.62 1003 10 16.0934 0 0
5:35 am 05:35 Cloudy 48 9 42 5.6 79 79 ENE 22 35 29.62 1003 10 16.0934 0 0
5:55 am 05:55 Cloudy 49 9.2 42 5.5 78 78 ENE 25 41 29.68 1005 10 16.0934 0 0
6:15 am 06:15 Cloudy 48 9 43 5.9 81 81 ENE 30 48 29.62 1003 10 16.0934 0 0
6:35 am 06:35 Cloudy with Light Rain 47 8.6 43 6.1 84 84 E 12 19 29.68 1005 7 11.26538 0 0
6:55 am 06:55 Cloudy 47 8.5 43 6.3 86 86 ENE 20 31 29.68 1005 10 16.0934 0 0
7:15 am 07:15 Cloudy 47 8.6 43 6.2 85 85 ENE 22 35 29.68 1005 10 16.0934 0 0
7:35 am 07:35 Cloudy 47 8.6 43 6.1 84 84 ENE 23 37 29.68 1005 10 16.0934 0 0
7:55 am 07:55 Cloudy 48 8.8 42 5.8 82 82 ENE 22 35 29.68 1005 10 16.0934 0 0
8:15 am 08:15 Cloudy 48 9 43 6 82 82 NNE 9 15 29.74 1007 10 16.0934 0 0
8:35 am 08:35 Cloudy 48 8.8 42 5.7 81 81 NE 15 24 29.74 1007 10 16.0934 0 0
8:55 am 08:55 Cloudy 48 8.8 42 5.8 82 82 NE 20 31 29.71 1006 10 16.0934 0 0
9:15 am 09:15 Cloudy 49 9.2 43 6 81 81 NE 18 30 29.71 1006 10 16.0934 0 0
9:35 am 09:35 Cloudy 50 10 43 6 76 76 NE 15 24 29.71 1006 10 16.0934 0 0
9:55 am 09:55 Cloudy 50 10.2 43 6.1 76 76 NE 16 26 29.71 1006 10 16.0934 0 0
10:15 am 10:15 Cloudy 51 10.8 43 6.2 73 73 NE 20 31 29.68 1005 10 16.0934 0 0
10:35 am 10:35 Cloudy 54 12 44 6.8 71 71 NE 18 30 29.68 1005 10 16.0934 0 0
10:55 am 10:55 Cloudy 54 12.2 44 6.5 68 68 NE 22 35 29.68 1005 10 16.0934 0 0
11:15 am 11:15 Cloudy 55 12.6 44 6.7 68 68 ENE 24 39 29.68 1005 10 16.0934 0 0
11:35 am 11:35 Cloudy 55 12.9 44 6.7 66 66 NE 20 31 29.68 1005 10 16.0934 0 0
11:55 am 11:55 Cloudy 55 12.6 44 6.5 67 67 ENE 23 37 29.68 1005 10 16.0934 0 0
12:15 pm 12:15 Cloudy 55 13 44 6.7 66 66 ENE 18 30 29.65 1004 10 16.0934 0 0
12:35 pm 12:35 Cloudy 56 13.6 45 7 65 65 ENE 20 31 29.65 1004 10 16.0934 0 0
12:55 pm 12:55 Cloudy 58 14.2 45 7.4 64 64 ENE 18 30 29.65 1004 10 16.0934 0 0
1:15 pm 13:15 Cloudy 59 15.1 46 8 63 63 ENE 15 24 29.65 1004 10 16.0934 0 0
1:35 pm 13:35 Cloudy 61 15.9 47 8.5 62 62 E 17 28 29.65 1004 10 16.0934 0 0
1:55 pm 13:55 Cloudy 63 17.3 48 9 58 58 E 21 33 29.59 1002 10 16.0934 0 0
2:15 pm 14:15 Cloudy 64 17.8 49 9.3 58 58 E 17 28 29.59 1002 10 16.0934 0 0
2:35 pm 14:35 Cloudy 64 17.6 50 9.8 60 60 E 18 30 29.59 1002 10 16.0934 0 0
2:55 pm 14:55 Mostly Cloudy 68 19.8 53 11.4 59 59 E 18 30 29.53 1000 10 16.0934 0 0
3:15 pm 15:15 Mostly Cloudy 68 20.1 52 11.1 56 56 E 17 28 29.53 1000 10 16.0934 0 0
3:35 pm 15:35 Partly Cloudy 67 19.6 53 11.8 61 61 E 21 33 29.53 1000 10 16.0934 0 0
3:55 pm 15:55 Mostly Cloudy 67 19.5 54 12.2 63 63 E 18 30 29.53 1000 10 16.0934 0 0
4:15 pm 16:15 Mostly Cloudy 68 19.8 55 12.5 63 63 E 17 28 29.53 1000 10 16.0934 0 0
4:35 pm 16:35 Mostly Cloudy 68 20.2 55 12.9 63 63 E 13 20 29.5 999 10 16.0934 0 0
4:55 pm 16:55 Partly Cloudy 69 20.6 56 13.1 62 62 E 14 22 29.5 999 10 16.0934 0 0
5:15 pm 17:15 Sunny 70 21.2 56 13.5 62 62 E 15 24 29.47 998 10 16.0934 0 0
5:35 pm 17:35 Sunny 69 20.8 56 13.2 62 62 ENE 15 24 29.44 997 10 16.0934 0 0
5:55 pm 17:55 Sunny 70 21 56 13.1 61 61 ENE 16 26 29.47 998 10 16.0934 0 0
6:15 pm 18:15 Partly Cloudy 71 21.6 56 13.2 59 59 E 14 22 29.44 997 10 16.0934 0 0
6:35 pm 18:35 Partly Cloudy 70 21.1 56 13.1 60 60 ENE 15 24 29.44 997 10 16.0934 0 0
6:55 pm 18:55 Partly Cloudy with Nearby Thunderstorms 68 20 55 12.7 63 63 NNE 13 20 29.44 997 10 16.0934 0 0
7:15 pm 19:15 Mostly Cloudy with Nearby Thunderstorms 68 20.1 54 12.3 61 61 NE 17 28 29.47 998 10 16.0934 0 0
7:35 pm 19:35 Cloudy with Nearby Thunderstorms 67 19.6 52 11.2 59 59 N 24 39 29.44 997 10 16.0934 0 0
7:55 pm 19:55 Cloudy with Thunderstorms 61 16.1 54 12 77 77 NNW 9 15 29.5 999 10 16.0934 0 0
8:15 pm 20:15 Cloudy with Heavy Thunderstorms 55 12.6 52 10.9 89 89 NNW 13 20 29.59 1002 0.75 1.207005 0.94 23.876
8:35 pm 20:35 Cloudy 49 9.3 47 8.5 95 95 NE 6 9 29.65 1004 3 4.82802 1.52 38.608
8:55 pm 20:55 Cloudy with Heavy Thunderstorms 49 9.7 48 9 95 95 NNE 7 11 29.65 1004 5 8.0467 1.67 42.418
9:15 pm 21:15 Cloudy with Rain 48 9 47 8.2 95 95 NE 8 13 29.68 1005 7 11.26538 0.05 1.27
9:35 pm 21:35 Cloudy with Rain 49 9.3 47 8.3 94 94 NE 23 37 29.62 1003 5 8.0467 0.11 2.794
9:55 pm 21:55 Cloudy with Light Rain 50 9.9 46 8 88 88 NE 28 44 29.62 1003 10 16.0934 0.13 3.302
10:15 pm 22:15 Cloudy with Light Rain 51 10.8 46 7.8 82 82 NNE 28 44 29.62 1003 10 16.0934 0.01 0.254
10:35 pm 22:35 Partly Cloudy 52 11.1 47 8.2 82 82 N 10 17 29.62 1003 10 16.0934 0.01 0.254
10:55 pm 22:55 Clear 52 11.1 47 8.3 83 83 NNE 18 30 29.59 1002 10 16.0934 0.01 0.254
11:15 pm 23:15 Clear 52 11 48 9 88 88 NNE 18 30 29.59 1002 10 16.0934 0 0
11:35 pm 23:35 Clear 52 11.1 47 8.5 84 84 NE 21 33 29.59 1002 10 16.0934 0 0
11:55 pm 23:55 Clear 51 10.6 48 8.7 88 88 NNE 24 39 29.56 1001 10 16.0934 0 0

Powered by AerisWeather